Helicity
48 77 61 114 68 59 59 62 67 66 79 80 58 88 151 150 154 107 105 96 95 70 72 62 39 37 73 88 104 108 121 188 262 207 214 303 263 277 274 263 321 425 322 338
42 68 76 54 56 62 53 42 41 40 46 71 86 174 158 172 96 104 100 95 84 79 68 43 89 88 91 103 139 143 153 169 257 185 198 213 212 275 276 388 369 392 486 531
38 117 107 94 58 46 38 45 73 118 57 125 114 83 188 90 110 100 94 92 66 73 69 88 83 69 65 85 99 118 148 211 280 254 257 277 221 227 205 290 453 493 502 523
117 103 100 223 284 187 180 172 147 116 100 83 138 262 236 153 112 90 72 50 72 78 78 74 55 45 23 40 89 145 176 174 198 220 191 213 249 245 283 215 335 556 792 715
134 116 117 104 143 117 133 115 106 53 60 102 105 86 83 51 68 49 45 58 66 69 65 57 64 53 51 82 90 132 179 186 197 194 199 215 219 214 224 299 340 402 638 987
69 82 124 116 97 68 30 -5 80 77 58 62 8 -20 35 33 43 57 77 60 63 69 58 69 85 57 66 87 105 120 81 70 78 112 162 184 139 164 176 235 297 274 362 524
-19 -2 39 82 54 43 22 69 49 28 31 11 11 6 46 50 64 65 71 65 40 44 75 93 80 53 63 77 92 42 27 32 56 63 62 65 87 112 126 149 182 283 338 426
-5 29 53 96 8 44 20 -19 -14 52 85 58 47 76 74 54 51 54 65 60 43 34 40 51 67 73 68 60 36 8 3 19 34 36 32 39 54 70 84 76 103 163 181 210
27 60 52 -5 33 43 59 34 27 42 54 64 86 64 51 53 46 54 54 48 37 31 28 35 46 45 60 33 11 2 5 14 22 21 26 31 56 56 45 45 50 58 70 90
-4 34 -4 5 19 30 38 27 24 40 54 59 71 58 51 45 43 40 42 39 32 33 34 43 51 50 45 25 -7 -12 -1 -1 -5 7 22 37 18 32 43 57 26 27 34 29
34 10 1 5 10 5 6 10 19 29 37 42 44 53 46 42 41 39 35 35 33 37 45 55 52 48 45 33 7 5 5 3 9 6 5 2 -1 13 9 28 27 11 -7 8
40 34 44 11 2 -4 -4 -1 5 17 25 30 30 33 32 37 36 30 32 32 44 54 48 56 58 56 42 33 23 11 11 8 -0 -9 -10 -9 -13 -9 33 26 41 64 77 49
22 65 71 39 10 -6 -14 -11 1 7 9 13 8 9 13 16 15 14 27 37 43 35 34 32 30 34 24 8 11 14 16 8 -3 -2 -10 -17 -19 -18 -13 8 41 61 67 90
53 55 40 19 13 19 5 -2 -2 2 1 -0 3 5 10 14 20 32 38 43 45 44 45 39 35 36 26 22 19 9 7 13 1 -0 -0 -2 -3 -7 -11 -3 7 22 48 65
1 6 51 63 56 43 23 5 3 -0 -3 7 8 12 18 30 39 42 44 42 48 58 60 49 45 43 28 15 19 27 14 3 -1 -4 -10 -10 -5 4 14 23 23 22 17 38
26 29 28 37 37 31 34 19 16 17 25 35 41 48 52 50 54 60 69 74 60 64 57 47 49 49 42 38 28 29 31 41 23 11 5 5 7 15 24 28 35 46 61 78
27 16 11 12 11 18 24 41 40 39 40 46 50 53 60 67 74 79 75 66 56 54 44 44 45 36 31 37 14 23 15 13 14 12 28 38 40 48 49 48 49 45 52 52
29 22 12 12 19 30 41 44 48 52 60 74 97 93 88 76 72 62 57 45 46 53 57 49 31 27 30 20 7 17 14 16 24 37 39 41 41 62 73 73 77 78 79 69
32 32 37 38 35 37 46 62 84 109 98 85 87 86 79 70 62 59 46 34 25 48 62 40 40 46 53 58 34 52 66 70 63 66 62 52 73 77 81 87 96 99 105 103
69 83 84 78 81 70 86 85 68 72 70 74 79 75 79 71 61 52 56 71 68 61 54 52 50 66 71 79 78 87 86 87 86 91 101 94 102 83 94 97 98 100 97 93
87 104 102 88 92 70 53 58 63 70 72 70 72 76 78 68 54 38 22 62 64 57 53 47 77 79 86 73 64 92 98 93 98 96 89 89 84 92 95 98 97 96 98 102
64 69 71 68 65 69 64 65 77 87 89 92 95 81 69 59 48 59 81 88 68 36 52 78 97 95 83 69 96 90 89 86 79 81 88 92 89 92 94 93 98 96 96 94
46 54 69 71 66 75 79 81 85 86 93 91 88 73 66 67 63 58 66 65 62 79 68 121 98 84 79 65 83 88 91 86 94 102 102 106 105 109 105 103 113 114 106 100
65 68 79 82 78 80 94 92 96 104 104 95 88 70 66 68 64 78 84 94 100 82 95 116 101 91 62 75 98 101 100 103 107 122 122 105 122 129 130 133 130 133 131 136
70 74 77 72 76 83 100 101 106 98 79 88 78 66 66 86 111 125 106 105 99 59 126 112 119 108 108 111 120 111 115 111 134 129 141 156 136 150 152 157 179 196 176 142
65 65 64 70 86 92 97 87 94 83 77 96 91 90 93 95 101 107 116 121 129 120 137 140 132 115 130 133 111 117 115 126 141 152 148 134 145 148 151 160 158 155 170 185
82 84 89 100 104 106 97 94 93 93 80 85 102 93 109 114 118 121 130 128 130 130 134 132 127 130 121 105 118 130 132 136 155 144 126 134 136 133 138 133 128 125 124 129
Wind_Speed
67 71 49 53 43 40 42 44 59 64 72 76 86 85 70 62 63 63 62 62 64 65 67 69 68 67 66 63 61 61 58 58 54 59 56 53 46 37 33 30 33 38 41 47
55 52 52 57 54 58 54 57 67 71 78 80 80 65 56 56 59 55 54 56 57 59 59 56 62 61 58 54 55 56 55 56 53 49 53 47 40 36 34 30 30 28 31 35
51 43 51 62 54 49 54 51 57 63 65 61 68 53 49 51 48 45 46 49 48 48 49 52 50 50 51 46 49 51 53 53 51 51 50 47 37 37 35 28 26 28 31 34
48 46 58 43 40 50 52 50 48 57 58 63 47 38 41 41 37 38 40 38 37 38 41 38 36 37 39 43 46 47 49 52 53 51 49 47 36 36 35 28 26 30 33 35
40 45 46 39 45 47 48 51 46 46 46 35 31 27 34 32 30 31 30 28 27 26 28 27 30 33 36 43 45 47 50 51 54 54 49 51 45 42 38 34 31 32 30 26
32 44 51 36 35 41 41 51 36 41 34 22 17 32 30 27 26 24 22 19 19 21 21 23 28 31 37 43 48 49 51 53 56 56 54 52 43 45 41 41 40 44 37 25
26 35 34 35 41 38 33 34 45 45 46 21 38 33 23 18 17 16 16 16 16 14 17 21 24 29 35 39 46 46 52 54 56 58 59 56 51 51 51 51 48 47 40 35
21 29 33 45 35 38 39 41 39 36 9 16 14 13 11 15 15 16 16 15 13 14 18 23 26 29 33 34 32 43 52 57 58 57 57 55 53 54 55 55 54 50 48 38
28 29 35 38 33 35 35 31 26 18 11 8 14 9 16 15 20 16 14 12 13 17 22 27 29 32 34 37 40 42 49 54 61 63 63 62 58 56 52 55 50 49 46 39
17 27 29 29 28 26 26 21 19 13 9 15 11 18 19 20 16 12 11 13 16 20 24 29 36 40 42 42 49 50 53 55 57 61 63 62 60 63 61 61 56 54 51 47
25 27 24 25 22 20 20 15 11 12 7 8 8 12 15 12 13 11 12 16 21 24 31 35 39 43 45 48 49 55 59 60 61 61 61 60 63 63 62 64 62 58 55 54
29 22 22 23 19 17 16 12 10 6 8 10 8 9 10 11 12 11 16 22 26 30 34 38 42 44 49 51 55 56 59 59 60 60 60 60 59 57 64 64 64 62 60 56
28 22 18 16 17 16 14 12 9 7 6 4 10 7 11 17 16 19 22 26 31 34 38 41 43 46 51 54 56 57 60 60 59 61 61 59 59 58 57 54 60 62 61 60
23 23 17 13 17 18 12 9 8 8 10 9 10 11 15 17 20 24 27 29 33 36 39 42 45 49 52 54 56 57 57 59 59 60 60 60 60 59 58 59 59 60 59 60
26 28 16 16 21 17 11 9 10 10 11 12 15 18 21 23 25 27 29 31 34 37 40 43 46 50 53 54 54 57 58 58 58 58 59 59 59 59 60 60 61 61 61 63
17 16 16 18 17 13 16 13 14 15 15 16 17 20 22 24 26 29 32 34 33 37 41 44 47 51 54 55 55 54 55 60 59 59 60 61 61 62 63 63 63 63 63 67
14 14 14 14 14 15 16 15 15 15 16 18 19 20 21 23 26 28 31 33 35 38 41 44 47 50 52 55 55 55 57 59 61 61 63 64 65 65 65 65 65 65 64 63
25 20 19 18 17 17 19 16 15 15 16 17 18 20 21 23 24 26 29 31 34 38 41 44 47 48 52 54 57 57 59 62 63 65 66 67 68 68 69 69 69 70 70 66
24 18 20 19 18 17 16 15 16 16 16 16 17 19 20 21 23 26 28 30 32 37 42 44 47 50 52 57 59 58 61 64 65 66 68 70 71 72 73 73 73 73 73 73
18 17 16 18 18 15 14 15 14 14 15 15 16 17 19 21 23 26 29 33 36 37 41 44 46 50 54 57 60 61 63 66 67 68 70 72 73 74 74 74 76 76 76 75
15 15 15 15 15 15 14 13 13 15 15 16 17 18 20 22 25 27 25 33 35 36 39 42 49 53 56 60 61 63 65 67 70 72 73 75 75 76 77 77 77 77 77 77
15 14 14 14 14 14 14 15 16 17 18 18 19 19 21 23 25 29 33 35 34 38 41 45 50 56 59 63 63 66 68 71 72 73 74 75 76 78 78 78 78 76 75 75
20 16 14 16 16 16 17 17 18 18 19 20 20 21 26 27 28 31 31 35 37 42 46 48 53 57 62 63 65 68 71 72 73 74 75 76 78 79 79 79 78 76 76 74
15 15 15 16 16 17 16 18 19 19 20 21 21 26 29 29 32 35 36 38 41 45 49 52 57 60 63 64 68 71 72 74 75 75 78 79 78 78 78 79 77 76 74 72
15 15 17 17 16 16 17 18 20 20 20 22 24 28 33 36 38 39 42 42 44 47 45 53 59 65 65 68 70 72 74 75 77 78 77 78 80 78 76 75 74 74 73 72
14 14 15 17 18 17 17 17 20 20 21 26 30 32 34 36 38 39 41 43 46 50 54 58 62 66 69 70 72 73 75 75 76 76 76 76 75 74 73 73 73 72 72 73
14 14 14 17 17 17 17 20 21 25 30 28 30 33 35 38 39 41 44 47 50 54 57 61 64 66 68 70 71 72 72 72 72 74 72 71 71 71 71 71 71 71 70 69
Wind_Direction
275 276 297 290 295 290 285 286 286 289 290 294 294 300 310 314 316 320 322 325 328 328 327 324 323 320 322 323 322 321 317 320 314 320 320 315 307 321 309 292 282 267 257 252
291 296 295 291 291 287 289 290 290 294 295 299 302 308 311 315 318 321 324 328 329 320 317 313 325 325 323 322 326 330 334 333 325 324 338 336 327 317 315 302 298 296 278 265
298 307 301 293 295 294 293 293 296 297 303 311 308 312 315 319 321 323 326 319 305 312 318 329 324 326 329 323 328 337 343 343 342 342 343 339 332 342 338 303 320 302 291 276
302 309 296 309 321 314 309 306 303 304 308 315 323 326 324 325 322 317 296 287 299 308 325 320 321 328 333 340 345 346 352 356 356 357 359 357 353 352 346 342 335 316 307 297
304 303 307 312 316 316 315 306 311 308 314 325 336 350 337 313 302 281 273 281 290 298 313 314 328 338 346 355 358 360 0 358 359 3 4 7 6 4 1 2 359 355 337 320
321 312 310 331 331 330 327 310 321 316 320 335 356 302 290 274 262 278 300 276 291 309 309 322 334 341 354 0 4 5 4 7 11 12 12 12 9 10 9 13 11 17 18 359
315 322 336 338 330 332 327 323 295 274 240 268 248 243 250 281 293 280 260 272 281 286 318 330 336 346 357 360 4 2 8 12 14 15 18 17 16 16 17 18 17 18 13 8
336 331 325 310 324 280 266 283 267 272 309 256 344 316 323 253 248 237 237 249 254 302 327 338 345 352 358 358 352 2 11 15 15 14 15 14 14 15 16 18 19 16 16 13
356 348 331 295 300 320 307 307 301 301 336 336 25 269 233 236 216 229 238 274 306 330 346 351 350 353 356 356 357 360 7 12 18 18 17 17 14 11 8 11 8 8 8 3
41 337 285 317 334 318 319 301 264 288 335 239 239 221 214 213 225 252 287 314 330 344 353 355 358 360 359 355 5 6 9 11 13 17 17 14 14 16 13 11 8 7 3 0
298 274 316 322 315 313 337 320 310 252 286 244 234 226 220 233 232 266 307 331 347 353 0 2 2 4 2 1 2 13 18 16 16 16 14 16 17 14 13 14 12 9 7 6
265 303 296 289 314 317 325 296 289 284 242 238 249 240 245 243 253 292 334 349 359 2 3 5 5 2 3 2 7 11 17 13 10 10 9 8 8 13 20 21 16 13 10 6
280 308 327 342 343 349 286 275 315 341 285 291 250 306 351 13 355 355 355 1 5 9 12 10 6 3 4 8 10 14 16 13 8 11 11 5 2 359 357 5 15 11 8 5
22 30 349 2 348 21 353 307 312 299 269 287 336 334 359 3 3 5 2 1 6 10 8 9 9 6 4 9 11 12 14 14 12 11 9 5 1 357 354 351 350 351 357 357
314 270 348 32 50 32 354 331 330 314 294 330 352 14 21 22 17 10 8 9 8 5 3 3 6 5 4 5 10 13 11 10 9 4 360 357 355 354 352 350 347 345 343 342
351 4 19 38 41 21 34 339 309 297 304 324 347 1 12 19 19 13 6 359 1 1 358 356 355 354 356 357 0 5 5 1 357 354 352 350 351 349 347 346 344 343 343 340
331 336 354 353 344 341 334 3 9 22 25 19 21 23 18 15 13 6 5 6 6 4 1 357 355 355 354 353 352 355 351 348 346 346 346 346 346 345 343 342 340 339 339 340
305 309 319 318 326 326 319 350 358 356 348 1 3 4 0 353 0 360 357 360 2 0 354 351 349 352 350 346 344 347 345 343 343 343 343 342 340 339 338 337 336 334 333 334
312 312 309 322 333 329 347 352 347 356 359 3 4 3 2 2 1 356 359 4 5 359 353 352 352 352 353 350 349 352 349 346 345 344 342 338 337 335 334 333 332 330 329 328
329 320 323 326 336 341 346 343 353 3 9 14 13 7 5 2 359 355 356 354 354 359 358 356 357 357 354 353 351 350 347 345 344 342 341 339 337 335 333 332 330 329 328 327
343 332 332 338 341 337 340 359 18 26 24 24 15 9 4 0 355 356 8 353 360 2 2 360 354 349 350 347 347 346 345 343 341 339 337 336 334 333 331 330 329 328 326 325
344 337 338 347 343 344 348 2 21 35 40 27 11 4 360 355 358 352 346 352 359 356 353 351 349 348 346 345 344 343 341 339 338 337 335 334 332 330 329 328 327 326 326 325
287 306 345 21 27 23 23 24 29 34 39 45 21 359 336 342 348 348 350 350 350 349 347 348 346 345 343 343 341 340 339 338 337 336 335 333 331 330 328 327 326 325 323 322
334 353 11 19 24 30 24 30 30 28 27 29 7 338 337 345 344 345 348 346 346 345 343 344 343 343 342 341 340 339 338 337 336 335 334 332 332 331 329 327 326 325 324 323
11 17 41 49 39 23 33 39 33 26 25 12 352 340 336 339 339 344 343 346 346 345 349 346 344 341 341 340 340 339 338 337 336 335 335 334 332 332 331 331 330 329 327 326
40 22 45 53 35 42 38 34 15 10 2 344 339 343 346 347 349 350 351 350 349 347 344 344 343 342 341 341 340 339 338 338 338 338 337 335 335 334 333 332 331 329 327 326
21 30 28 18 17 13 10 2 354 342 331 339 344 346 349 351 352 352 351 350 348 346 345 344 344 344 344 343 342 342 341 341 341 340 339 339 338 337 336 334 333 331 330 328